Location: Newark
(47.5833°N, 8.1500°E)
Time: 10:39:25
(UTC+00:00)

Altair - Pass Details

Date: 02 November 2020
Orbit: 1502 x 1682 km, 47.2° (Epoch: 25 November)

Event Time Altitude Azimuth Distance (km) Brightness Sun altitude
Exits shadow 01:56:32 27° 134° (SE) 2,580 8.7 -42.7°
Maximum altitude 01:56:36 27° 133° (SE) 2,580 8.7 -42.7°
Drops below altitude 10° 02:03:59 10° 80° (E) 3,724 10.1 -41.6°
Sets 02:07:39 0° 70° (ENE) 4,737 10.9 -41.1°
